Date String (YYYY-MM-DD hh:mm:ss) UTC,Instrument flags,absolute air pressure of the measurement (hPa),sample flow rate (lpm),inlet stack bypass flow (lpm),air temperature of the measurement (°C),ambient temperature measured by the external sensor (°C),aerosol sample conditioner tube jacket temperature (°C),OPC LED temperature (°C),internal box temperature (°C),relative humidity of the measurement (%),span deviation,mass concentration of particles derived from Lorenz-Mie calculation of OPC scattering (μg/m³),mass concentration of particles derived from Lorenz-Mie calculation of OPC scattering (μg/m³),mass concentration of particles derived from Lorenz-Mie calculation of OPC scattering (μg/m³)
DateTimeUTC,F1_M11,P_M11,Q1_M11,Q2_M11,T1_M11,T2_M11,T3_M11,T4_M11,T5_M11,U1_M11,ZSPAN_M11,X0_M11,X2_M11,X1_M11
2023-09-04 09:00:00,SystemResetWarning,0826.4,5.00,000.00,028.2,026.0,000.0,036.7,029.6,29.5,0000.0,0004.63,0002.28,0001.89
2023-09-04 09:01:00,SystemResetWarning,0826.4,5.01,000.00,028.2,026.3,000.0,036.7,029.7,29.2,0000.0,0004.48,0002.30,0001.91
2023-09-04 09:02:00,SystemResetWarning,0826.4,5.00,000.00,028.2,026.5,000.0,036.7,029.7,29.0,0000.0,0004.44,0002.33,0001.93
2023-09-04 09:03:00,SystemResetWarning,0826.4,4.99,000.00,028.2,026.7,000.0,036.7,029.8,29.1,0000.0,0004.35,0002.29,0001.91
2023-09-04 09:04:00,SystemResetWarning,0826.4,4.99,000.00,028.2,026.8,000.0,036.7,029.8,29.5,0000.0,0004.28,0002.26,0001.88
2023-09-04 09:05:00,SystemResetWarning,0826.4,4.99,000.00,028.3,026.9,000.0,036.7,029.9,29.8,0000.0,0004.26,0002.23,0001.85
2023-09-04 09:06:00,SystemResetWarning,0826.4,5.00,000.00,028.3,027.0,000.0,036.7,029.9,29.8,0000.0,0004.31,0002.23,0001.82
2023-09-04 09:07:00,SystemResetWarning,0826.3,5.00,000.00,028.3,027.1,000.0,036.7,029.9,29.5,0000.0,0004.31,0002.19,0001.78
2023-09-04 09:08:00,SystemResetWarning,0826.3,5.00,000.00,028.4,027.2,000.0,036.7,030.0,29.4,0000.0,0004.28,0002.16,0001.75
2023-09-04 09:09:00,SystemResetWarning,0826.4,5.00,000.00,028.4,027.3,000.0,036.7,030.0,29.2,0000.0,0004.39,0002.14,0001.68
2023-09-04 09:10:00,SystemResetWarning,0826.4,5.00,000.00,028.4,027.3,000.0,036.8,030.1,29.7,0000.0,0003.31,0002.08,0001.63
2023-09-04 09:11:00,SystemResetWarning,0826.4,5.00,000.00,028.5,027.4,000.0,036.8,030.1,29.5,0000.0,0003.04,0002.00,0001.59
2023-09-04 09:12:00,SystemResetWarning,0826.4,5.01,000.00,028.5,027.4,000.0,036.8,030.1,29.4,0000.0,0003.11,0001.97,0001.53
2023-09-04 09:13:00,SystemResetWarning,0826.4,4.99,000.00,028.5,027.5,000.0,036.8,030.2,29.1,0000.0,0002.98,0001.91,0001.47
2023-09-04 09:14:00,SystemResetWarning,0826.4,5.00,000.00,028.6,027.5,000.0,036.8,030.2,29.1,0000.0,0002.99,0001.91,0001.46
2023-09-04 09:15:00,SystemResetWarning,0826.4,5.00,000.00,028.6,027.5,000.0,036.9,030.2,30.1,0000.0,0003.06,0001.92,0001.45
2023-09-04 09:16:00,SystemResetWarning,0826.4,4.98,000.00,028.6,026.3,000.0,036.8,029.9,30.3,0000.0,0003.11,0001.92,0001.45
2023-09-04 09:17:00,SystemResetWarning,0826.4,5.00,000.00,028.4,024.9,000.0,036.7,029.5,29.8,0000.0,0003.06,0001.90,0001.44
2023-09-04 09:18:00,SystemResetWarning,0826.3,5.01,000.00,028.3,024.5,000.0,036.7,029.3,29.7,0000.0,0003.12,0001.91,0001.43
2023-09-04 09:19:00,SystemResetWarning,0826.3,5.01,000.00,028.2,024.7,000.0,036.7,029.2,29.4,0000.0,0003.10,0001.90,0001.42
2023-09-04 09:20:00,SystemResetWarning,0826.3,5.00,000.00,028.1,025.1,000.0,036.7,029.4,29.7,0000.0,0002.88,0001.83,0001.42
2023-09-04 09:21:00,SystemResetWarning,0826.2,4.99,000.00,028.1,025.4,000.0,036.7,029.5,30.1,0000.0,0002.80,0001.80,0001.42
2023-09-04 09:22:00,SystemResetWarning,0826.3,4.99,000.00,028.1,025.8,000.0,036.7,029.5,30.0,0000.0,0002.96,0001.85,0001.41
2023-09-04 09:23:00,SystemResetWarning,0826.3,4.99,000.00,028.1,026.1,000.0,036.7,029.6,30.3,0000.0,0002.95,0001.87,0001.43
2023-09-04 09:24:00,SystemResetWarning,0826.3,5.01,000.00,028.2,026.3,000.0,036.7,029.7,30.1,0000.0,0002.95,0001.87,0001.43
2023-09-04 09:25:00,SystemResetWarning,0826.3,5.01,000.00,028.2,026.5,000.0,036.7,029.8,30.1,0000.0,0002.93,0001.86,0001.43
2023-09-04 09:26:00,SystemResetWarning,0826.2,5.00,000.00,028.2,026.7,000.0,036.7,029.8,30.0,0000.0,0002.89,0001.86,0001.43
2023-09-04 09:27:00,SystemResetWarning,0826.2,4.99,000.00,028.2,026.8,000.0,036.7,029.8,30.0,0000.0,0002.78,0001.84,0001.44
2023-09-04 09:28:00,SystemResetWarning,0826.2,4.99,000.00,028.3,027.0,000.0,036.7,029.9,30.1,0000.0,0002.94,0001.89,0001.45
2023-09-04 09:29:00,SystemResetWarning,0826.2,4.99,000.00,028.3,027.1,000.0,036.7,029.9,30.0,0000.0,0002.85,0001.88,0001.45
2023-09-04 09:30:00,SystemResetWarning,0826.2,5.00,000.00,028.3,027.1,000.0,036.7,029.9,30.3,0000.0,0003.07,0001.91,0001.46
2023-09-04 09:31:00,SystemResetWarning,0826.2,5.00,000.00,028.4,027.2,000.0,036.7,030.0,30.3,0000.0,0003.40,0001.98,0001.47
2023-09-04 09:32:00,SystemResetWarning,0826.2,5.01,000.00,028.4,027.3,000.0,036.7,030.0,30.0,0000.0,0003.59,0002.06,0001.47
2023-09-04 09:33:00,SystemResetWarning,0826.2,5.01,000.00,028.4,027.3,000.0,036.7,030.0,29.9,0000.0,0003.47,0002.04,0001.48
2023-09-04 09:34:00,SystemResetWarning,0826.2,5.00,000.00,028.4,027.4,000.0,036.8,030.1,29.9,0000.0,0003.34,0001.99,0001.47
2023-09-04 09:35:00,SystemResetWarning,0826.2,5.00,000.00,028.5,027.4,000.0,036.8,030.2,29.8,0000.0,0003.35,0001.99,0001.45
2023-09-04 09:36:00,SystemResetWarning,0826.2,5.00,000.00,028.5,027.5,000.0,036.8,030.2,29.8,0000.0,0003.51,0002.02,0001.46
2023-09-04 09:37:00,SystemResetWarning,0826.2,5.00,000.00,028.5,027.5,000.0,036.8,030.2,29.8,0000.0,0003.49,0002.02,0001.47
2023-09-04 09:38:00,SystemResetWarning,0826.2,5.00,000.00,028.6,027.6,000.0,036.8,030.2,29.9,0000.0,0003.57,0002.07,0001.48
2023-09-04 09:39:00,SystemResetWarning,0826.2,4.99,000.00,028.6,027.1,000.0,036.8,030.1,29.9,0000.0,0003.44,0002.04,0001.48
2023-09-04 09:40:00,SystemResetWarning,0826.2,4.99,000.00,028.5,025.4,000.0,036.7,029.6,30.0,0000.0,0003.38,0002.02,0001.50
2023-09-04 09:41:00,SystemResetWarning,0826.2,5.00,000.00,028.4,024.6,000.0,036.7,029.4,30.3,0000.0,0003.31,0002.03,0001.50
2023-09-04 09:42:00,SystemResetWarning,0826.2,5.01,000.00,028.2,024.6,000.0,036.7,029.3,30.9,0000.0,0003.11,0001.99,0001.51
2023-09-04 09:43:00,SystemResetWarning,0826.2,5.01,000.00,028.2,024.9,000.0,036.7,029.3,30.9,0000.0,0003.09,0001.96,0001.52
2023-09-04 09:44:00,SystemResetWarning,0826.2,5.00,000.00,028.1,025.3,000.0,036.7,029.4,30.7,0000.0,0003.13,0001.97,0001.53
2023-09-04 09:45:00,SystemResetWarning,0826.2,5.00,000.00,028.1,025.7,000.0,036.7,029.5,30.6,0000.0,0003.22,0002.00,0001.54
2023-09-04 09:46:00,SystemResetWarning,0826.2,5.00,000.00,028.1,026.0,000.0,036.7,029.6,29.9,0000.0,0003.19,0001.99,0001.55
2023-09-04 09:47:00,SystemResetWarning,0826.2,5.00,000.00,028.1,026.2,000.0,036.7,029.6,29.8,0000.0,0003.13,0001.99,0001.57
2023-09-04 09:48:00,SystemResetWarning,0826.3,5.00,000.00,028.2,026.4,000.0,036.7,029.7,29.9,0000.0,0003.18,0002.02,0001.58
2023-09-04 09:49:00,SystemResetWarning,0826.2,5.00,000.00,028.2,026.6,000.0,036.7,029.8,30.6,0000.0,0003.15,0002.02,0001.59
2023-09-04 09:50:00,SystemResetWarning,0826.2,4.99,000.00,028.2,026.8,000.0,036.7,029.8,30.5,0000.0,0003.25,0002.06,0001.60
2023-09-04 09:51:00,SystemResetWarning,0826.2,5.00,000.00,028.2,026.9,000.0,036.7,029.8,30.6,0000.0,0003.29,0002.07,0001.61
2023-09-04 09:52:00,SystemResetWarning,0826.2,4.99,000.00,028.3,027.0,000.0,036.7,029.9,30.5,0000.0,0003.24,0002.07,0001.60
2023-09-04 09:53:00,SystemResetWarning,0826.2,5.00,000.00,028.3,027.1,000.0,036.7,029.9,30.4,0000.0,0003.14,0002.06,0001.59
2023-09-04 09:54:00,SystemResetWarning,0826.2,5.01,000.00,028.3,027.1,000.0,036.7,029.9,30.4,0000.0,0002.91,0002.01,0001.57
2023-09-04 09:55:00,SystemResetWarning,0826.2,5.01,000.00,028.4,027.2,000.0,036.7,030.0,30.1,0000.0,0002.88,0002.00,0001.56
2023-09-04 09:56:00,SystemResetWarning,0826.2,4.99,000.00,028.4,027.3,000.0,036.7,030.0,29.8,0000.0,0002.80,0001.95,0001.55
2023-09-04 09:57:00,SystemResetWarning,0826.2,5.00,000.00,028.4,027.3,000.0,036.8,030.0,29.9,0000.0,0003.21,0001.96,0001.56
2023-09-04 09:58:00,SystemResetWarning,0826.2,5.00,000.00,028.4,027.3,000.0,036.8,030.0,30.2,0000.0,0003.16,0001.95,0001.57
2023-09-04 09:59:00,SystemResetWarning,0826.2,4.99,000.00,028.5,027.4,000.0,036.8,030.1,30.6,0000.0,0003.84,0001.97,0001.57
